Change the Weather History Date:

Wednesday, June 26, 2013

  Actual Average Record
Temperature  
Mean Temperature 85 °F -  
Max Temperature 95 °F 86 °F 98 °F (2012)
Min Temperature 75 °F 68 °F 64 °F (2001)
Cooling Degree Days 20    
Growing Degree Days 35 (Base 50)    
Moisture  
Dew Point 69 °F    
Average Humidity 60    
Maximum Humidity 74    
Minimum Humidity 44    
Precipitation  
Precipitation 0.00 in - - ()
Sea Level Pressure  
Sea Level Pressure 29.93 in    
Wind  
Wind Speed 11 mph (South)    
Max Wind Speed 20 mph    
Max Gust Speed 25 mph    
Visibility 10 miles    
Events      
Averages and records for this station are not official NWS values.
T = Trace of Precipitation, MM = Missing Value Source: NWS Daily Summary

Daily Weather History Graph

Daily Weather History Graph

Search for Another Location

Airport or City:

Trip Planner

Search our weather history database for the weather conditions in past years. The results will help you decide how hot, cold, wet, or windy it might be!

Date:

Astronomy

Jun. 26, 2013 Rise Set
Actual Time 6:13 AM CDT 8:36 PM CDT
Civil Twilight 5:44 AM CDT 9:05 PM CDT
Nautical Twilight 5:08 AM CDT 9:40 PM CDT
Astronomical Twilight 4:29 AM CDT 10:19 PM CDT
Moon 11:12 PM CDT (6/26) 9:55 AM CDT (6/26)
Length of Visible Light 15h 20m
Length of Day
14h 22m
Waning Gibbous, 85% of the Moon is Illuminated
Jun 26
Waning Gibbous
Jun 29
Last Quarter
Jul 8
New
Jul 15
First Quarter
Jul 22
Full

Hourly Weather History & Observations

Time (CDT) Temp. Heat Index Dew Point Humidity Pressure Visibility Wind Dir Wind Speed Gust Speed Precip Events Conditions
12:15 AM 80.6 °F 82.7 °F 66.2 °F 61% 29.90 in 10.0 mi South 10.4 mph - N/A   Clear
12:35 AM 80.6 °F 82.7 °F 66.2 °F 61% 29.90 in 10.0 mi South 10.4 mph - N/A   Clear
12:55 AM 80.6 °F 83.2 °F 68.0 °F 65% 29.91 in 10.0 mi South 11.5 mph - N/A   Clear
1:15 AM 80.6 °F 83.2 °F 68.0 °F 65% 29.91 in 10.0 mi South 10.4 mph - N/A   Clear
1:35 AM 80.6 °F 83.2 °F 68.0 °F 65% 29.91 in 10.0 mi South 9.2 mph - N/A   Clear
1:55 AM 80.6 °F 83.2 °F 68.0 °F 65% 29.90 in 10.0 mi South 11.5 mph - N/A   Clear
2:15 AM 80.6 °F 83.2 °F 68.0 °F 65% 29.90 in 10.0 mi South 10.4 mph - N/A   Clear
2:35 AM 78.8 °F - 69.8 °F 74% 29.89 in 10.0 mi South 10.4 mph - N/A   Clear
2:55 AM 78.8 °F - 69.8 °F 74% 29.89 in 10.0 mi South 10.4 mph 16.1 mph N/A   Clear
3:15 AM 78.8 °F - 69.8 °F 74% 29.89 in 10.0 mi South 10.4 mph - N/A   Clear
3:35 AM 78.8 °F - 69.8 °F 74% 29.88 in 10.0 mi South 11.5 mph - N/A   Clear
3:55 AM 78.8 °F - 69.8 °F 74% 29.89 in 10.0 mi South 12.7 mph - N/A   Clear
4:15 AM 78.8 °F - 68.0 °F 69% 29.89 in 10.0 mi South 11.5 mph - N/A   Clear
4:35 AM 78.8 °F - 66.2 °F 65% 29.90 in 10.0 mi South 12.7 mph - N/A   Clear
4:55 AM 77.0 °F - 66.2 °F 69% 29.90 in 10.0 mi South 11.5 mph - N/A   Clear
5:15 AM 77.0 °F - 66.2 °F 69% 29.91 in 10.0 mi South 13.8 mph - N/A   Clear
5:35 AM 75.2 °F - 66.2 °F 73% 29.91 in 10.0 mi South 11.5 mph - N/A   Clear
5:55 AM 75.2 °F - 64.4 °F 69% 29.92 in 10.0 mi SSW 11.5 mph - N/A   Clear
6:15 AM 75.2 °F - 64.4 °F 69% 29.93 in 10.0 mi South 9.2 mph - N/A   Clear
6:35 AM 75.2 °F - 64.4 °F 69% 29.95 in 10.0 mi South 8.1 mph - N/A   Clear
6:55 AM 75.2 °F - 64.4 °F 69% 29.95 in 10.0 mi South 10.4 mph - N/A   Clear
7:15 AM 75.2 °F - 66.2 °F 73% 29.96 in 10.0 mi South 10.4 mph - N/A   Clear
7:35 AM 77.0 °F - 66.2 °F 69% 29.97 in 10.0 mi South 9.2 mph - N/A   Clear
7:55 AM 77.0 °F - 66.2 °F 69% 29.98 in 10.0 mi SSW 10.4 mph - N/A   Clear
8:15 AM 78.8 °F - 68.0 °F 69% 29.98 in 10.0 mi SSW 13.8 mph 18.4 mph N/A   Clear
8:35 AM 78.8 °F - 68.0 °F 69% 29.99 in 10.0 mi SSW 17.3 mph 21.9 mph N/A   Scattered Clouds
8:55 AM 78.8 °F - 68.0 °F 69% 30.00 in 10.0 mi SSW 16.1 mph 25.3 mph N/A   Overcast
9:15 AM 80.6 °F 83.9 °F 69.8 °F 70% 30.00 in 10.0 mi SSW 16.1 mph 21.9 mph N/A   Mostly Cloudy
9:35 AM 80.6 °F 83.2 °F 68.0 °F 65% 30.01 in 10.0 mi SSW 16.1 mph 20.7 mph N/A   Mostly Cloudy
9:55 AM 80.6 °F 83.2 °F 68.0 °F 65% 30.01 in 10.0 mi SW 17.3 mph - N/A   Partly Cloudy
10:15 AM 82.4 °F 86.3 °F 69.8 °F 66% 30.00 in 10.0 mi SSW 19.6 mph 23.0 mph N/A   Partly Cloudy
10:35 AM 84.2 °F 88.4 °F 69.8 °F 62% 30.00 in 10.0 mi SSW 17.3 mph 21.9 mph N/A   Partly Cloudy
10:55 AM 84.2 °F 88.4 °F 69.8 °F 62% 30.00 in 10.0 mi SSW 15.0 mph 24.2 mph N/A   Scattered Clouds
11:15 AM 84.2 °F 88.4 °F 69.8 °F 62% 30.00 in 10.0 mi South 17.3 mph 23.0 mph N/A   Partly Cloudy
11:35 AM 86.0 °F 90.4 °F 69.8 °F 58% 29.99 in 10.0 mi SSW 15.0 mph 23.0 mph N/A   Clear
11:55 AM 87.8 °F 92.6 °F 69.8 °F 55% 29.99 in 10.0 mi SW 15.0 mph 21.9 mph N/A   Clear
12:15 PM 87.8 °F 92.6 °F 69.8 °F 55% 29.98 in 10.0 mi SSW 13.8 mph 20.7 mph N/A   Clear
12:35 PM 89.6 °F 94.7 °F 69.8 °F 52% 29.98 in 10.0 mi SW 15.0 mph - N/A   Clear
12:55 PM 89.6 °F 94.7 °F 69.8 °F 52% 29.98 in 10.0 mi SSW 13.8 mph - N/A   Clear
1:15 PM 89.6 °F 94.7 °F 69.8 °F 52% 29.97 in 10.0 mi South 16.1 mph 19.6 mph N/A   Clear
1:35 PM 89.6 °F 94.7 °F 69.8 °F 52% 29.97 in 10.0 mi South 15.0 mph 20.7 mph N/A   Clear
1:55 PM 91.4 °F 96.8 °F 69.8 °F 49% 29.96 in 10.0 mi SW 12.7 mph 18.4 mph N/A   Clear
2:15 PM 91.4 °F 96.8 °F 69.8 °F 49% 29.96 in 10.0 mi South 16.1 mph 20.7 mph N/A   Clear
2:35 PM 91.4 °F 96.8 °F 69.8 °F 49% 29.95 in 10.0 mi SSW 8.1 mph 16.1 mph N/A   Clear
2:55 PM 93.2 °F 98.8 °F 69.8 °F 46% 29.95 in 10.0 mi SW 13.8 mph 17.3 mph N/A   Clear
3:15 PM 93.2 °F 98.8 °F 69.8 °F 46% 29.95 in 10.0 mi SSW 9.2 mph - N/A   Clear
3:35 PM 93.2 °F 98.8 °F 69.8 °F 46% 29.94 in 10.0 mi South 10.4 mph - N/A   Clear
3:55 PM 93.2 °F 98.8 °F 69.8 °F 46% 29.93 in 10.0 mi South 8.1 mph - N/A   Clear
4:15 PM 93.2 °F 98.8 °F 69.8 °F 46% 29.93 in 10.0 mi SW 13.8 mph - N/A   Clear
4:35 PM 93.2 °F 98.8 °F 69.8 °F 46% 29.92 in 10.0 mi South 11.5 mph 18.4 mph N/A   Clear
4:55 PM 95.0 °F 101.3 °F 69.8 °F 44% 29.92 in 10.0 mi SSW 11.5 mph 18.4 mph N/A   Clear
5:15 PM 95.0 °F 101.3 °F 69.8 °F 44% 29.91 in 10.0 mi SW 10.4 mph 17.3 mph N/A   Clear
5:35 PM 95.0 °F 101.3 °F 69.8 °F 44% 29.91 in 10.0 mi SSW 11.5 mph - N/A   Clear
5:55 PM 93.2 °F 98.8 °F 69.8 °F 46% 29.90 in 10.0 mi South 8.1 mph - N/A   Clear
6:15 PM 93.2 °F 98.8 °F 69.8 °F 46% 29.89 in 10.0 mi South 11.5 mph - N/A   Clear
6:35 PM 93.2 °F 98.8 °F 69.8 °F 46% 29.89 in 10.0 mi South 9.2 mph - N/A   Clear
6:55 PM 93.2 °F 98.8 °F 69.8 °F 46% 29.89 in 10.0 mi South 8.1 mph - N/A   Clear
7:15 PM 91.4 °F 96.8 °F 69.8 °F 49% 29.89 in 10.0 mi South 6.9 mph - N/A   Clear
7:35 PM 89.6 °F 94.7 °F 69.8 °F 52% 29.89 in 10.0 mi SSE 9.2 mph - N/A   Clear
7:55 PM 87.8 °F 92.6 °F 69.8 °F 55% 29.89 in 10.0 mi SSE 8.1 mph - N/A   Clear
8:15 PM 86.0 °F 90.4 °F 69.8 °F 58% 29.89 in 10.0 mi SSE 6.9 mph - N/A   Clear
8:35 PM 84.2 °F 87.3 °F 68.0 °F 58% 29.89 in 10.0 mi SSE 6.9 mph - N/A   Clear
8:55 PM 84.2 °F 87.3 °F 68.0 °F 58% 29.90 in 10.0 mi SE 8.1 mph - N/A   Clear
9:15 PM 82.4 °F 86.3 °F 69.8 °F 66% 29.91 in 10.0 mi SE 8.1 mph - N/A   Clear
9:35 PM 82.4 °F 86.3 °F 69.8 °F 66% 29.91 in 10.0 mi SE 6.9 mph - N/A   Clear
9:55 PM 82.4 °F 86.3 °F 69.8 °F 66% 29.92 in 10.0 mi SE 9.2 mph - N/A   Clear
10:15 PM 80.6 °F 83.2 °F 68.0 °F 65% 29.92 in 10.0 mi SSE 8.1 mph - N/A   Clear
10:35 PM 80.6 °F 83.2 °F 68.0 °F 65% 29.92 in 10.0 mi SSE 8.1 mph - N/A   Clear
10:55 PM 80.6 °F 83.2 °F 68.0 °F 65% 29.92 in 10.0 mi SSE 8.1 mph - N/A   Clear
11:15 PM 80.6 °F 83.2 °F 68.0 °F 65% 29.93 in 10.0 mi SSE 8.1 mph - N/A   Clear
11:35 PM 80.6 °F 83.2 °F 68.0 °F 65% 29.94 in 10.0 mi SSE 5.8 mph - N/A   Clear
11:55 PM 80.6 °F 82.7 °F 66.2 °F 61% 29.94 in 10.0 mi SSE 5.8 mph - N/A   Clear